Location: Davayat
(45.9471°N, 3.1105°E)
Time: 18:15:43
(UTC+00:00)

Cosmos 2366 rocket - Pass Details

Date: 01 December 2020
Orbit: 955 x 997 km, 82.9° (Epoch: 17 January)

Event Time Altitude Azimuth Distance (km) Brightness Sun altitude
Rises 16:29:22 0° 357° (N) 3,667 6.8 -4.7°
Reaches altitude 10° 16:32:06 10° 5° (N) 2,710 6.0 -5.1°
Maximum altitude 16:37:50 38° 73° (ENE) 1,426 4.4 -6.0°
Drops below altitude 10° 16:43:29 10° 140° (SE) 2,679 6.2 -6.9°
Sets 16:46:09 0° 149° (SSE) 3,620 6.9 -7.3°
